Location: Roland
(31.1349°N, 85.4372°W)
Time: 21:01:48
(UTC+00:00)

deb Explorer IX - All Passes

Search period start: 17 April 2021 00:00
Search period end: 27 April 2021 00:00
Orbit: 540 x 1099 km, 38.8° (Epoch: 16 April)

Date Brightness Start Highest point End Pass type
(mag) Time Alt. Az. Time Alt. Az. Time Alt. Az.
17 Apr - 12:05:53 10° SW 12:09:47 39° SE 12:14:09 10° ENE daylight
17 Apr - 13:52:06 10° W 13:56:30 53° NNW 14:01:36 10° ENE daylight
17 Apr - 15:39:26 10° WNW 15:44:05 36° N 15:49:28 10° ENE daylight
17 Apr - 17:26:16 10° WNW 17:31:46 56° NNE 17:38:11 10° E daylight
17 Apr - 19:13:02 10° WNW 19:19:02 58° SSW 19:25:52 10° SE daylight
17 Apr - 21:02:00 10° WSW 21:05:52 16° SW 21:09:54 10° S daylight
18 Apr - 11:42:18 10° SW 11:46:09 39° SE 11:50:22 10° ENE daylight
18 Apr - 13:28:33 10° W 13:32:50 52° NNW 13:37:45 10° ENE daylight
18 Apr - 15:15:54 10° WNW 15:20:22 35° N 15:25:33 10° ENE daylight
18 Apr - 17:02:41 10° WNW 17:08:00 55° NNE 17:14:14 10° E daylight
18 Apr - 18:49:23 10° WNW 18:55:13 57° SSW 19:01:54 10° SE daylight
18 Apr - 20:38:21 10° WSW 20:42:02 15° SW 20:45:53 10° S daylight
19 Apr - 11:18:44 10° SW 11:22:32 38° SE 11:26:38 10° ENE daylight
19 Apr - 13:05:02 10° W 13:09:12 51° NNW 13:13:56 10° ENE daylight
19 Apr - 14:52:22 10° WNW 14:56:41 34° N 15:01:38 10° ENE daylight
19 Apr - 16:39:06 10° WNW 16:44:14 54° NNE 16:50:18 10° E daylight
19 Apr - 18:25:46 10° WNW 18:31:25 56° SSW 18:37:57 10° SE daylight
19 Apr - 20:14:45 10° WSW 20:18:13 15° SW 20:21:52 10° S daylight
20 Apr - 10:55:09 10° SW 10:58:55 38° SE 11:02:55 10° ENE daylight
20 Apr - 12:41:28 10° W 12:45:33 50° NNW 12:50:09 10° ENE daylight
20 Apr - 14:28:50 10° WNW 14:33:00 33° N 14:37:45 10° ENE daylight
20 Apr - 16:15:33 10° WNW 16:20:31 53° NNE 16:26:22 10° E daylight
20 Apr - 18:02:09 10° WNW 18:07:37 55° SSW 18:14:00 10° SE daylight
20 Apr - 19:51:11 10° WSW 19:54:25 14° SW 19:57:50 10° S daylight
21 Apr - 10:31:33 10° SW 10:35:19 38° SSE 10:39:13 10° ENE visible
21 Apr - 12:17:55 10° W 12:21:56 49° NNW 12:26:22 10° ENE daylight
21 Apr - 14:05:19 10° WNW 14:09:20 32° N 14:13:54 10° ENE daylight
21 Apr - 15:51:59 10° WNW 15:56:47 52° NNE 16:02:27 10° E daylight
21 Apr - 17:38:34 10° WNW 17:43:52 54° SSW 17:50:04 10° SE daylight
21 Apr - 19:27:39 10° WSW 19:30:38 14° SW 19:33:46 10° S daylight
22 Apr - 10:07:56 10° SW 10:11:42 38° SSE 10:15:33 10° ENE visible
22 Apr - 11:54:22 10° W 11:58:19 48° NNW 12:02:37 10° ENE daylight
22 Apr - 13:41:47 10° WNW 13:45:41 31° N 13:50:04 10° ENE daylight
22 Apr - 15:28:26 10° WNW 15:33:06 51° NNE 15:38:34 10° E daylight
22 Apr - 17:15:00 10° WNW 17:20:07 53° SSW 17:26:07 10° SE daylight
22 Apr - 19:04:10 10° WSW 19:06:51 13° SW 19:09:41 10° SSW daylight
23 Apr - 09:44:18 10° SW 09:48:06 38° SSE 09:51:55 10° ENE visible
23 Apr - 11:30:48 10° W 11:34:43 47° NNW 11:38:54 10° ENE daylight
23 Apr - 13:18:15 10° WNW 13:22:03 30° N 13:26:15 10° ENE daylight
23 Apr - 15:04:55 10° WNW 15:09:25 50° NNE 15:14:41 10° E daylight
23 Apr - 16:51:27 10° WNW 16:56:23 52° SSW 17:02:12 10° SE daylight
23 Apr - 18:40:44 10° WSW 18:43:06 12° SW 18:45:34 10° SSW daylight
24 Apr - 09:20:39 10° SW 09:24:30 38° SSE 09:28:17 10° ENE visible
24 Apr - 11:07:13 10° W 11:11:07 46° NNW 11:15:12 10° ENE daylight
24 Apr - 12:54:43 10° WNW 12:58:25 29° N 13:02:27 10° ENE daylight
24 Apr - 14:41:23 10° WNW 14:45:45 49° NNE 14:50:50 10° E daylight
24 Apr - 16:27:53 10° WNW 16:32:40 51° SSW 16:38:16 10° SE daylight
24 Apr - 18:17:23 10° WSW 18:19:21 12° SW 18:21:25 10° SSW daylight
25 Apr - 08:56:59 10° SW 09:00:55 39° SSE 09:04:42 10° ENE visible
25 Apr - 10:43:37 10° W 10:47:32 46° NNW 10:51:32 10° ENE daylight
25 Apr - 12:31:11 10° WNW 12:34:48 29° N 12:38:42 10° ENE daylight
25 Apr - 14:17:51 10° WNW 14:22:06 49° NNE 14:26:59 10° E daylight
25 Apr - 16:04:22 10° WNW 16:08:58 49° SSW 16:14:23 10° SE daylight
25 Apr - 17:54:08 10° SW 17:55:37 11° SW 17:57:10 10° SSW daylight
26 Apr - 08:33:17 10° SW 08:37:18 39° SSE 08:41:07 10° ENE visible
26 Apr - 10:19:59 10° W 10:23:56 46° NNW 10:27:54 10° ENE visible
26 Apr - 12:07:38 10° WNW 12:11:12 28° N 12:14:58 10° ENE daylight
26 Apr - 13:54:19 10° WNW 13:58:28 48° NNE 14:03:11 10° E daylight
26 Apr - 15:40:49 10° WNW 15:45:18 48° SSW 15:50:30 10° SE daylight
26 Apr - 17:31:07 10° SW 17:31:54 10° SW 17:32:43 10° SSW daylight
